カタログに戻る

CZ-6A DEB

運用中PO
NORAD 61305·DEBRIS·🇨🇳 China

打ち上げ Aug 6, 2024 から Taiyuan Satellite Launch Center

Loading…

次のパス (今後24時間)

TLE

最新Source: Space-Track

元期: Sep 14, 2026, 10:32 UTC

1 61305U 24140TS  26257.43892983  .00003566  00000-0  64136-3 0  9997
2 61305  88.9791 257.2282 0086855 287.4349  71.7384 14.63994602108986

AllMySatでCZ-6A DEBをリアルタイム追跡

Download on the App Store